Flag for Japan Weather past 2 weeks in Matsuyama, Japan

Now
82 °F

Warm.


Feels Like: 89 °F
Forecast: 78 / 89 °F
Wind: 1 mph from South

Location: Matsuyama

Current Time: Jul 29, 2015 at 1:10:44 AM

Latest Report: Jul 29, 2015 at 12:00 AM


Visibility: N/A

Pressure: 29.81 "Hg

Humidity: 80%

Dew point: 75 °F

Location of MatsuyamaLocation

Historic Weather in Matsuyama — Graph

°F

Matsuyama temperature yesterday

Maximum temperature yesterday: 90 °F (at 3:00 PM)
Minimum temperature yesterday: 78 °F (at 2:00 AM)
Average temperature yesterday: 83 °F

Past Weeks' High & Low Weather Summary

 TemperatureHumidityPressure
High95 °F (Jul 26, 2:00 PM)98% (Jul 23, 4:00 AM)29.96 "Hg (Jul 23, 4:00 AM)
Low69 °F (Jul 17, 10:00 AM)39% (Jul 26, 11:00 AM)29.09 "Hg (Jul 17, 1:00 AM)
Average80 °F76%29.77 "Hg
* Reported Jul 13 11:00 PM — Jul 28 11:00 PM, Matsuyama, Weather by CustomWeather, © 2015

Note: Actual official high and low records may vary slightly from our data, if they occured in-between our weather recording intervals... More about our weather records

Advertising

Matsuyama weather history for previous 24 hours

 ConditionsComfort  
Time TempWeatherWind HumidityBarometerVisibility
11:00 PM
Tue, Jul 28
83 °FWarm.3 mph81%29.81 "HgN/A
10:00 PM83 °FWarm.3 mph79%29.81 "HgN/A
9:00 PM84 °FOvercast.3 mph77%29.80 "Hg6 mi
8:00 PM84 °FWarm.6 mph74%29.79 "HgN/A
7:00 PM85 °FWarm.7 mph74%29.79 "HgN/A
6:00 PM86 °FOvercast.6 mph69%29.78 "Hg9 mi
5:00 PM89 °FHot.3 mph63%29.79 "HgN/A
3:00 PM90 °FOvercast.5 mph60%29.79 "Hg9 mi
2:00 PM88 °FWarm.3 mph61%29.80 "HgN/A
1:00 PM87 °FWarm.5 mph64%29.80 "HgN/A
12:00 PM88 °FOvercast.5 mph62%29.80 "Hg9 mi
11:00 AM87 °FWarm.5 mph65%29.82 "HgN/A
10:00 AM84 °FWarm.2 mph72%29.83 "HgN/A
9:00 AM82 °FOvercast.3 mph80%29.83 "Hg6 mi
8:00 AM81 °FWarm.3 mph82%29.83 "HgN/A
7:00 AM80 °FWarm.2 mph81%29.83 "HgN/A
5:00 AM79 °FWarm.3 mph85%29.82 "HgN/A
4:00 AM78 °FWarm.3 mph86%29.81 "HgN/A
3:00 AM78 °FOvercast.6 mph84%29.81 "Hg6 mi
2:00 AM78 °FWarm.5 mph84%29.80 "HgN/A
1:00 AM79 °FWarm.7 mph83%29.80 "HgN/A
Weather by CustomWeather, © 2015

See weather overviewHow to use our weather pages